Regional Weather Roundup
Issued by NWS San Diego, CA

Home | Current Version | Previous Version | Text Only | Print | Product List | Glossary On
Versions: 1 2 3 4 5 6 7 8 9 10 11 12 13 14 15 16 17 18 19 20 21 22 23 24 25 26 27 28 29 30 31 32 33 34 35 36 37 38 39 40 41 42 43 44 45 46 47 48 49 50
000
ASUS46 KSGX 280011
RWRSGX

SAN DIEGO HOURLY WEATHER ROUNDUP
NATIONAL WEATHER SERVICE SAN DIEGO CA
500 PM PDT SAT AUG 27 2016

NOTE: "FAIR" INDICATES FEW OR NO CLOUDS BELOW 12,000 FEET WITH NO
SIGNIFICANT WEATHER AND/OR OBSTRUCTIONS TO VISIBILITY.

CAZ042-043-060-061-PZZ750-775-280100-

GREATER SAN DIEGO AREA

CITY           SKY/WX    TMP DP  RH WIND       PRES   REMARKS
LINDBERGH FLD  MOSUNNY   73  58  59 W14       29.96S
POINT LOMA       N/A     72  57  59 W16         N/A
NATIONAL CITY    N/A     73  62  68 NW6       29.95S
CHULA VISTA      N/A     73  63  70 W8        29.87F
IMPERIAL BEACH SUNNY     73  58  59 NW14      29.95S
BROWN FIELD    SUNNY     72  58  61 W13       29.95S
MIRAMAR MCAS   MOSUNNY   73  57  57 W13       29.95S
MONTGOMERY FLD SUNNY     73  57  57 NW13      29.95S

$$

NORTH SAN DIEGO COUNTY

CITY           SKY/WX    TMP DP  RH WIND       PRES   REMARKS
CAMP PENDLETON SUNNY     69  60  73 SW13      29.93F
OCEANSIDE AP   SUNNY     72  57  59 W14       29.93F
OCEANSIDE HBR    N/A     69  63  81 W12       29.97S
VISTA            N/A     72  62  70 W6        29.91F
CARLSBAD       MOSUNNY   69  60  73 VRB7      29.94S
DEL MAR          N/A     74  62  66 CALM      29.97S
LA JOLLA SCRIP   N/A     70  62  75 W3        29.94F
FALLBROOK        N/A     76  63  63 S7        29.92F
ESCONDIDO        N/A     73  61  65 CALM      29.95S
SAN MARCOS       N/A     72  61  68 CALM      29.97F
POWAY            N/A     77  61  57 N3        29.94S

$$

EAST SAN DIEGO COUNTY

CITY           SKY/WX    TMP DP  RH WIND       PRES   REMARKS
RAMONA         SUNNY     74  57  55 W14G21    29.95S
SANTEE LAKES     N/A     74  61  63 W12       29.92R
LA MESA          N/A     74  60  61 W8        29.87S
JAMUL            N/A     76  61  60 CALM      29.93S
DESCANSO N       N/A     74  57  54 SW6       29.86R
MT. LAGUNA OBS   N/A     69  43  39 E5        29.73S
CAMPO            N/A     80  55  42 SW16      29.92S

$$

ORANGE COUNTY AND THE LOS ANGELES BASIN

CITY           SKY/WX    TMP DP  RH WIND       PRES   REMARKS
JOHN WAYNE AP  MOSUNNY   74  58  57 W7        29.93F
LAGUNA BEACH     N/A     75  63  65 W2        29.89F
LAKE FOREST FR   N/A     78  57  47 W2        29.82S
HUNTINGTON BCH   N/A     73  64  72 W12       29.95F
LOS ALAMITOS   FAIR      77  59  54 SW10      29.92F
FULLERTON      SUNNY     78  56  46 VRB7      29.91F
LONG BEACH     SUNNY     75  59  57 NW10      29.93F
L.A. AP        MOSUNNY   71  59  65 W17       29.94F
L.A. DOWNTOWN  SUNNY     73  59  61 W7        29.93F

$$

THE INLAND EMPIRE

CITY           SKY/WX    TMP DP  RH WIND       PRES   REMARKS
CORONA         SUNNY     80  59  48 W10G18    29.91F
CHINO          MOSUNNY   84  57  39 SW15      29.92F
ONTARIO        MOSUNNY   83  53  35 W13       29.92F
SAN BERNARDINO MOSUNNY   88  50  27 W5        29.92F HAZE
RIVERSIDE AP   SUNNY     83  53  35 W8        29.91F
MORENO VALLEY    N/A     87  59  39 W5        28.04F
MARCH ARB      SUNNY     83  56  39 W12       29.93F
HORSETHIEF CYN   N/A     82  52  35 NE7       29.94S
PERRIS           N/A     83  58  42 NW3       29.93S
HEMET EAST       N/A     85  50  29 NW2       29.81S
FRENCH VALLEY  FAIR      79  57  47 S12       29.94R
TEMECULA         N/A     79  60  52 SW8       29.95S

$$

SAN BERNARDINO AND RIVERSIDE COUNTY MOUNTAINS

CITY           SKY/WX    TMP DP  RH WIND       PRES   REMARKS
BIG BEAR AP    MOSUNNY   68  41  37 N5        30.22S
PINE COVE        N/A     68  52  57 W2        29.87S

$$

SOUTHERN DESERT INCLUDING THE COACHELLA VALLEY

CITY           SKY/WX    TMP DP  RH WIND       PRES   REMARKS
PALM SPRINGS   SUNNY     99  50  19 E8        29.81F HX  96
THOUSAND PALMS   N/A    100  53  20 SE6       29.77F HX  98
PALM DESERT      N/A    102  55  21 CALM      27.84F HX 100
THERMAL        SUNNY    101  45  15 S9        29.74F HX  97
BLYTHE         SUNNY    100  48  17 NE10G17   29.80F HX  96
IMPERIAL AP    SUNNY    102  54  20 VRB3      29.75F HX 100
EL CENTRO NAS  SUNNY    103  46  14 N5        29.77F HX  99
YUMA AZ        PTSUNNY  100  47  16 S6        29.77  HX  96
MEXICALI       SUNNY    100  39  12 E6        29.77F HX  95

$$

UPPER DESERT

CITY           SKY/WX    TMP DP  RH WIND       PRES   REMARKS
VICTORVILLE AP MOSUNNY   91  37  15 CALM      29.95F
HESPERIA         N/A     88  48  24 SW8       29.94S
PALMDALE       SUNNY     90  42  18 SW18      29.94F
LANCASTER      SUNNY     92  43  18 SW20      29.93S
EDWARDS AFB    MOSUNNY   95  33  11 NE3       29.89F
DAGGETT        SUNNY     95  48  20 E13       29.88F
29 PALMS N     MOSUNNY   92  42  17 NE5       29.97F
NEEDLES        MOSUNNY   92  56  29 E18G28    29.88F

$$

REGIONAL REPORTS

CITY           SKY/WX    TMP DP  RH WIND       PRES   REMARKS
SANTA BARBARA  SUNNY     68  59  73 W13       29.96F
SANDBERG       SUNNY     82  39  21 S14G22    30.10F
LAS VEGAS NV   CLOUDY    87  45  23 E10       29.92F
PHOENIX AZ     MOSUNNY   96  46  18 N7        29.83F
TIJUANA        SUNNY     72  55  56 W12       29.97S
ENSENADA NW      N/A     70  32  24 W17       29.91F

$$

OFFSHORE ISLANDS

CITY           SKY/WX    TMP DP  RH WIND       PRES   REMARKS
CATALINA ARPT  SUNNY     64  57  78 W13       29.98F
SAN NICOLAS IS CLOUDY   N/A N/A N/A NW16      29.97F

$$

MARINE AND OFFSHORE BUOY REPORTS

STATION/POSITION SKY/WX   TEMP    WIND        PRES    SWELL
                          AIR SEA DIR/SP/G            HT/PER/DIR
                          (F)     (DEG/KT/KT) (MB)    (FT/S/D)
TANNER BANKS               64 65  310/ 14/ 16 1015.0F   3/210/13
S CLEMENTE BASIN           66 71  280/ 14/ 16 1014.1F   2/220/14
SAN NICOLAS IS.               65                N/A     3/180/13
SO. S. ROSA ISLA           63 65  310/ 16/ 19 1014.9F   3/180/13
W. S. BARBARA CH           62 60  310/ 16/ 19 1015.4F   3/310/10
M. S. BARBARA CH                  280/ 14/ 16 1015.0F
S. MONICA BASIN            66 70  280/ 12/ 14 1013.9F
S PEDRO CHANNEL               72                N/A     2/160/13
OCEANSIDE OFFSHR              70                N/A     2/200/13
TORREY PINES OTR              70                N/A     2/190/13
POINT LOMA SOUTH              71                N/A     2/170/13

$$




USA.gov is the U.S. government's official web portal to all federal, state and local government web resources and services.